Wind_Speed
19 19 19 19 19 19 19 19 18 18 17 17 17 17 17 17 17 17 17 17 17 17 18 18 19 20 21 22 22 23 23 24 24 24 23 23 23 23 24 24 24 24 25 25 26 26 26 26 27 25 23 22 22 23 23 22 23 24 26 26 25 25 25 24 23 23 24 24 24
19 19 19 19 18 18 18 18 18 17 17 17 16 16 17 17 17 17 17 17 17 17 17 18 19 20 21 22 22 23 23 24 24 24 23 23 23 23 23 24 24 24 24 25 25 26 26 26 26 24 23 22 22 22 22 22 23 25 26 26 24 24 24 23 23 23 23 24 24
18 18 18 18 18 18 18 18 18 17 17 17 16 17 17 17 17 17 17 17 17 17 18 18 20 21 22 22 22 23 23 23 23 23 23 23 23 23 23 24 24 24 24 25 25 25 26 26 25 23 21 21 22 22 22 22 24 25 25 25 24 24 23 22 22 23 23 24 25
18 18 18 18 18 18 17 17 17 17 17 17 17 17 17 18 18 18 18 18 18 18 18 19 20 21 22 22 22 23 23 23 23 23 23 23 23 23 23 24 24 24 24 25 25 25 25 25 24 22 21 21 21 21 21 22 24 25 24 24 23 23 23 22 22 23 23 25 25
17 18 17 17 17 17 17 17 17 17 17 17 18 18 18 18 18 18 18 19 19 18 18 19 20 21 22 22 22 23 23 23 23 23 23 23 23 23 24 24 24 24 25 25 25 25 25 25 23 21 20 21 20 20 21 23 25 25 25 23 23 22 22 22 22 24 25 25 26
17 17 17 17 16 16 16 16 17 17 17 17 18 18 18 18 19 19 19 19 19 19 19 19 21 21 22 22 23 23 23 23 23 23 23 23 23 23 24 24 24 24 25 25 25 25 25 25 22 21 20 20 20 21 22 24 25 25 25 24 23 22 23 24 24 25 26 26 27
15 16 16 16 16 16 16 16 16 17 17 17 18 18 18 18 18 19 19 19 19 19 20 20 21 22 22 22 23 23 24 23 23 23 23 23 23 24 24 24 24 25 25 25 25 25 25 24 22 21 21 21 21 22 23 24 25 26 25 25 24 23 23 24 25 25 26 27 28
14 15 16 16 16 16 16 16 16 17 17 18 18 18 18 18 18 19 19 19 19 20 20 21 21 21 22 22 23 23 23 23 23 23 23 23 24 24 24 25 25 25 25 25 25 25 25 24 22 21 21 22 22 23 24 25 26 26 26 25 25 25 25 25 26 26 27 27 28
14 15 15 16 16 16 16 16 17 17 17 18 18 18 18 18 18 19 19 20 19 20 20 21 21 22 22 22 23 23 23 23 23 23 23 23 24 24 25 25 25 25 25 25 26 26 25 23 22 22 22 22 23 24 25 26 26 27 26 26 26 26 26 26 26 27 27 27 27
15 15 16 16 16 17 17 17 17 17 18 18 18 18 18 18 19 19 19 19 20 20 21 21 22 22 22 22 23 23 23 23 23 23 23 23 24 24 25 25 25 25 25 25 26 26 25 24 23 24 24 24 24 25 25 26 26 27 27 25 26 27 27 27 26 26 27 27 27
15 15 16 17 17 17 17 18 18 18 18 18 18 18 19 19 19 19 19 20 20 21 21 22 22 22 22 22 23 23 23 22 22 23 23 23 24 24 24 24 25 25 25 25 26 25 25 24 25 25 26 25 25 25 25 26 26 27 26 26 26 27 27 27 27 26 26 27 28
15 15 16 17 17 18 18 18 18 18 18 19 19 19 19 19 19 19 20 20 21 21 22 22 22 22 22 23 23 23 23 23 22 23 23 24 24 24 24 24 25 25 25 25 25 25 25 25 25 26 27 26 25 24 25 26 26 26 26 26 26 26 26 27 27 27 26 27 28
15 15 16 17 18 19 19 19 19 19 19 19 19 19 19 19 19 20 20 21 21 22 22 23 22 22 22 23 23 23 23 23 23 23 23 24 24 25 25 25 25 25 25 25 25 25 25 25 25 26 27 27 26 25 26 26 26 26 26 27 27 27 27 27 27 28 28 28 28
14 16 17 18 18 19 20 20 19 19 19 18 18 18 19 19 19 20 20 21 21 22 23 23 23 23 23 23 23 23 23 23 24 24 24 24 25 25 25 25 25 25 26 26 26 26 25 25 26 26 26 27 27 27 26 26 25 25 26 26 27 27 27 28 28 28 28 29 29
15 16 17 18 19 19 20 19 19 19 18 18 18 18 18 19 19 20 20 21 22 22 23 23 24 23 23 24 24 24 24 24 24 25 25 25 26 26 26 26 26 26 27 27 27 26 25 25 26 26 27 27 28 28 27 26 26 25 26 26 27 27 28 28 28 28 29 29 29
16 17 18 18 19 20 19 19 18 18 17 17 18 18 19 19 20 20 21 21 22 23 23 24 24 24 24 24 25 25 25 24 24 25 26 26 27 27 27 27 27 27 28 28 27 27 26 26 26 27 27 27 28 27 27 27 26 26 26 27 27 27 28 28 28 28 29 29 29
16 17 18 19 19 19 19 18 17 17 17 17 17 18 19 19 20 20 20 21 22 23 23 24 24 25 25 25 25 25 25 25 25 25 26 27 27 27 28 27 27 28 28 28 28 27 28 28 28 28 28 27 27 27 27 28 27 27 27 27 27 27 28 28 28 28 29 29 29
17 18 18 19 19 19 18 17 16 16 16 17 18 18 19 19 20 20 20 21 22 23 23 24 24 25 25 25 26 25 25 25 25 26 26 27 27 27 28 28 28 28 28 28 27 27 28 29 29 29 29 28 28 28 27 27 27 27 27 28 28 28 28 28 28 28 29 29 29
17 18 18 19 18 18 17 16 16 16 16 17 18 18 19 19 20 20 21 21 22 23 23 24 24 25 25 25 26 26 25 25 26 26 26 27 27 28 28 29 29 28 28 28 28 28 29 30 30 30 30 29 29 28 28 28 28 28 29 28 28 28 29 29 29 29 29 29 29
17 18 18 18 17 16 16 15 15 16 17 17 18 19 19 20 20 20 21 22 22 23 23 24 25 25 25 26 26 26 26 26 26 27 27 27 27 28 28 29 29 28 28 28 28 29 30 30 30 30 30 30 29 29 29 29 29 29 29 28 28 28 29 29 29 29 29 28 28
18 18 17 17 16 15 15 15 15 16 17 18 19 19 20 20 20 21 21 22 22 23 24 24 25 25 26 26 26 27 27 27 27 27 28 28 27 27 28 28 29 29 28 28 29 30 30 30 30 30 30 29 29 29 29 29 29 30 29 29 28 29 29 29 29 29 28 28 28
17 17 16 16 15 15 15 15 16 17 18 18 19 20 20 21 21 21 22 22 23 24 24 25 25 25 25 26 26 27 28 28 28 28 28 28 28 28 28 28 28 29 28 29 29 30 30 30 29 29 29 29 29 29 29 29 29 29 29 30 29 29 29 29 28 28 27 27 27
16 16 15 15 15 15 15 16 17 18 19 19 20 20 21 21 21 22 22 23 23 24 25 25 25 26 26 25 26 27 28 29 30 30 30 29 29 30 30 29 28 28 28 28 29 29 29 29 29 29 28 28 29 30 30 30 29 29 29 30 30 30 29 29 28 27 27 27 27
15 15 15 15 15 15 16 17 18 19 20 20 21 21 21 22 22 23 23 24 24 25 25 26 26 26 26 26 26 27 28 29 30 31 31 31 31 31 31 30 29 28 28 28 28 28 27 27 28 28 28 28 29 29 30 29 29 29 29 29 30 30 29 29 28 27 27 28 28
15 14 15 15 16 16 17 18 19 20 20 21 21 21 22 22 23 23 24 25 25 26 26 27 27 27 27 27 27 28 29 29 30 31 32 32 32 32 31 30 29 28 28 28 28 27 27 27 27 27 28 28 29 29 29 29 29 29 29 29 29 29 29 29 28 28 28 28 28
14 15 15 16 17 17 18 19 20 20 21 21 21 22 22 23 23 24 25 25 26 26 27 27 27 27 27 27 28 29 29 30 30 31 31 31 32 32 32 30 28 28 28 29 28 28 28 28 28 28 28 29 29 29 29 29 28 28 28 29 28 28 28 28 29 29 29 28 29
15 15 16 17 18 18 19 19 20 20 21 22 22 22 23 23 23 24 25 26 26 27 27 27 27 27 27 27 28 29 30 30 31 31 31 31 32 32 32 30 29 29 29 29 29 29 29 29 29 29 29 29 29 29 29 28 28 28 28 28 27 27 27 28 29 29 30 30 30
15 16 17 18 18 19 19 20 20 21 21 22 22 22 23 23 24 25 26 26 27 27 27 27 27 27 27 28 29 29 30 31 31 31 31 31 31 31 31 30 30 30 30 30 29 29 29 29 29 30 30 30 30 29 28 28 28 28 27 27 27 27 28 28 28 30 31 31 31
16 17 17 18 19 19 19 20 20 21 21 22 22 23 23 24 25 25 26 27 27 27 27 27 27 27 27 28 29 30 30 31 31 31 31 31 31 31 31 31 31 32 31 30 29 28 29 29 30 30 30 30 29 28 28 27 27 27 27 27 27 27 28 29 29 30 30 31 31
16 17 18 18 19 19 19 20 20 21 21 22 22 23 23 24 25 26 26 27 27 26 26 27 27 28 28 29 30 30 30 31 31 31 31 31 31 31 31 31 32 33 32 30 29 28 29 30 30 31 31 30 30 29 28 27 27 27 27 27 28 28 29 29 30 30 30 30 31
16 17 17 18 19 19 19 20 20 21 22 22 23 23 24 24 25 25 26 26 26 26 27 27 28 29 29 30 30 30 31 31 31 31 30 30 30 31 32 33 33 32 31 29 28 29 30 30 31 31 31 31 30 29 28 28 27 27 27 28 28 29 29 29 29 30 30 31 31
16 17 17 18 19 19 19 20 21 21 22 22 23 23 24 24 25 25 26 26 26 27 27 28 28 29 30 30 30 31 30 30 30 30 30 30 31 32 32 32 32 31 30 29 29 30 30 31 31 31 31 31 30 29 29 28 28 28 28 28 28 29 29 29 30 30 31 32 31
16 17 17 18 19 19 19 20 21 22 22 22 23 23 24 24 25 26 26 26 26 26 27 27 28 28 29 29 30 30 30 29 29 29 30 30 31 32 32 31 30 30 30 30 30 30 31 31 31 31 31 31 30 29 29 28 28 28 27 27 28 29 29 30 30 31 31 32 32
16 17 18 18 19 19 20 20 21 22 22 23 23 23 24 25 26 26 27 26 26 26 26 27 27 27 28 28 28 29 29 29 29 29 30 31 31 31 31 30 30 30 31 31 31 31 31 31 31 31 31 31 30 29 28 28 28 27 27 28 29 29 30 30 31 31 31 32 31
16 17 18 18 19 20 20 21 22 22 23 23 24 24 24 25 25 26 26 27 26 27 27 27 28 28 28 28 28 28 28 29 30 30 30 30 30 31 31 31 31 32 32 32 31 31 31 31 31 31 31 30 29 28 28 28 28 28 28 28 28 29 29 30 30 31 31 31 31
16 17 18 19 19 20 20 21 22 22 23 23 24 25 25 25 26 26 26 27 27 27 27 28 29 29 29 29 29 28 28 28 30 30 30 29 29 30 31 31 32 33 33 32 32 31 31 31 31 31 31 30 29 28 28 28 28 28 28 28 28 29 30 30 30 30 31 31 31
16 16 17 18 19 20 20 21 22 22 23 23 24 24 25 25 26 26 26 26 27 27 28 28 28 29 29 29 29 29 28 28 29 30 30 30 29 29 30 31 32 33 33 33 32 31 31 31 31 31 30 29 29 29 28 28 27 27 28 28 28 29 29 29 30 30 30 31 31
16 16 17 18 19 19 20 21 21 22 23 23 23 24 24 25 26 26 25 25 25 26 28 28 28 28 29 29 29 29 29 29 29 29 30 30 29 29 30 31 31 32 33 33 32 31 31 30 30 30 29 29 29 29 28 27 27 27 28 28 28 29 29 29 30 30 30 31 30
16 16 16 17 18 19 20 20 21 21 22 23 24 24 24 25 25 25 25 25 25 26 27 28 28 28 28 29 28 29 30 30 30 29 29 30 30 29 29 30 31 32 33 33 32 31 30 30 30 29 29 29 29 28 28 27 27 28 28 28 28 29 30 30 30 30 30 29 27
16 16 16 17 18 19 20 20 21 21 22 23 24 24 24 24 25 25 25 26 26 26 26 27 28 28 28 28 28 29 30 31 30 30 30 30 30 29 29 29 30 32 33 32 32 31 30 29 29 29 29 28 28 28 28 27 27 27 28 28 29 29 30 30 30 28 27 25 23
16 16 16 17 17 18 19 20 21 21 22 22 23 24 24 24 25 25 26 26 27 26 26 26 27 28 28 28 28 29 30 31 31 31 30 30 30 29 29 29 31 31 32 31 31 30 29 28 28 29 29 28 29 28 28 27 27 27 28 29 29 29 30 29 28 25 23 22 22
Wind_Direction
46 45 43 42 41 40 39 38 35 34 32 31 31 28 25 23 21 19 18 16 12 8 5 3 0 358 358 360 1 0 359 359 358 358 359 359 359 359 358 357 356 356 355 354 353 351 350 348 347 344 341 338 336 335 334 335 334 333 332 332 330 330 329 327 327 326 326 326 325
46 45 43 41 39 38 37 36 35 34 34 33 32 30 27 24 22 19 17 16 13 9 6 3 360 358 359 360 0 360 359 358 358 358 358 359 360 359 358 357 356 356 355 354 353 352 350 348 346 343 339 337 335 334 333 334 333 332 331 331 330 329 328 326 326 326 325 324 324
46 44 42 40 39 38 37 36 35 34 34 33 32 31 28 25 22 19 16 15 13 11 7 3 359 358 359 359 359 359 358 358 358 358 359 359 359 359 358 357 356 355 354 353 352 351 350 348 346 342 338 336 335 334 333 333 332 332 331 330 329 328 327 325 325 324 324 322 322
44 43 42 41 40 39 37 35 33 32 31 30 29 27 25 23 20 17 15 13 11 10 7 2 359 358 359 359 358 358 358 358 359 359 359 359 359 358 357 356 355 354 353 352 351 351 350 348 345 341 337 336 334 333 332 331 331 331 330 328 328 327 326 324 323 323 322 320 319
43 42 41 41 39 37 35 32 30 29 28 26 24 23 21 19 16 14 12 10 9 7 5 2 359 358 359 359 359 358 358 359 360 0 360 359 359 357 356 356 355 353 352 351 350 350 349 347 344 340 337 336 334 333 331 331 331 330 329 328 327 326 324 322 322 321 319 318 317
42 40 39 38 36 34 32 29 28 26 24 22 21 20 18 15 13 11 9 7 6 5 4 1 360 359 360 360 359 359 359 360 1 1 360 358 357 356 355 354 354 353 351 350 350 349 348 347 343 340 338 336 333 332 331 332 331 330 329 327 326 325 323 321 320 319 318 316 316
39 37 36 35 33 31 28 26 24 21 20 19 19 18 16 13 11 9 8 6 5 5 3 1 1 1 1 0 359 359 359 359 0 1 360 358 356 355 354 353 352 352 351 350 349 348 348 347 343 340 338 336 334 332 332 332 331 330 328 326 325 324 322 321 320 319 317 316 315
36 35 34 32 29 27 25 22 20 18 17 17 17 16 14 11 9 7 6 5 5 4 3 2 1 1 1 1 360 359 359 359 359 359 359 357 355 354 353 352 351 351 350 349 348 347 347 346 343 340 338 336 334 332 331 331 330 329 328 326 324 323 322 321 320 319 318 316 315
34 32 30 28 26 24 21 19 17 16 16 17 16 15 13 11 9 7 5 4 4 4 3 2 2 2 2 1 0 359 359 358 357 357 357 356 354 353 352 351 350 349 349 348 347 346 346 344 342 339 337 335 333 331 330 331 330 328 327 325 324 323 322 321 321 320 319 317 316
32 29 27 25 23 20 17 16 14 14 15 15 14 13 12 12 10 8 6 4 3 3 3 3 2 2 2 1 0 359 359 358 357 356 355 354 353 352 351 350 349 348 347 346 346 345 344 342 339 337 336 334 332 330 330 330 329 327 326 325 324 323 322 322 322 322 321 319 317
31 27 24 22 20 16 14 13 13 12 13 13 12 11 11 10 9 8 6 4 3 3 3 3 3 2 1 1 360 359 358 358 357 355 353 352 351 350 349 348 348 346 345 345 344 343 342 340 338 336 335 334 333 331 330 329 328 326 325 324 323 322 322 323 323 323 322 320 318
29 26 23 20 17 13 12 11 11 11 11 12 10 9 9 9 8 7 5 4 3 3 3 3 3 2 1 0 359 359 359 358 356 354 352 350 349 348 348 347 346 345 344 343 343 342 340 338 336 334 333 333 332 330 329 328 327 326 324 324 324 323 323 323 323 323 322 320 318
27 24 21 18 14 11 10 10 9 9 10 10 9 8 8 8 8 7 5 4 3 2 2 2 2 2 2 0 360 359 358 357 355 353 351 349 348 347 346 345 345 344 342 341 341 340 339 337 336 334 332 331 330 329 328 327 326 325 324 325 324 324 323 323 323 322 321 320 319
25 23 20 16 13 10 8 8 8 8 8 9 8 8 7 8 8 7 6 4 2 1 1 1 1 2 2 1 360 359 358 356 354 351 350 348 347 346 345 344 343 342 341 340 340 339 338 336 335 333 331 330 329 328 327 327 326 325 324 324 324 323 323 322 323 322 322 321 319
23 21 18 15 12 9 7 7 6 6 7 8 8 8 8 7 7 7 6 4 2 1 1 1 1 1 0 360 359 358 357 355 353 350 348 347 347 346 344 343 342 341 340 339 339 338 337 336 334 333 331 330 328 328 327 327 326 325 324 324 323 323 322 322 322 322 321 320 319
21 19 16 13 10 8 7 6 5 5 5 7 7 8 8 7 7 7 5 3 1 0 0 360 359 359 359 359 358 357 356 354 352 349 348 346 345 345 344 343 342 341 340 339 338 337 337 336 335 333 331 330 329 328 327 327 326 325 325 324 323 322 322 322 321 321 320 319 318
20 17 14 11 9 7 6 5 4 4 4 5 7 7 7 6 6 6 5 2 0 359 358 358 358 358 357 357 357 357 354 351 350 348 347 345 344 343 342 341 341 340 339 338 337 336 336 335 335 334 332 331 329 328 327 327 325 325 324 324 323 322 321 321 321 320 319 318 317
19 16 12 10 8 5 4 3 2 3 4 5 6 6 6 5 4 3 3 2 0 358 356 356 357 357 356 355 355 355 353 350 348 346 345 344 343 342 341 340 340 339 339 338 337 335 335 335 335 334 333 331 330 328 327 326 325 324 324 323 322 322 321 321 320 319 319 318 316
18 14 11 9 6 4 2 2 2 3 3 4 4 5 4 4 3 1 1 0 360 358 356 355 355 355 355 354 353 353 351 349 346 345 344 343 342 342 341 340 339 339 338 337 336 335 335 335 335 334 333 331 329 328 327 326 325 324 323 323 322 321 321 320 319 319 318 316 315
17 14 11 8 4 2 1 1 2 3 3 3 3 3 3 2 1 0 359 358 358 357 356 355 354 353 353 352 351 350 349 348 345 344 343 342 342 341 340 339 339 338 338 337 336 335 336 336 335 334 333 330 329 327 326 325 324 323 323 322 321 320 320 320 319 318 317 316 315
16 13 9 5 3 2 1 1 2 2 2 2 2 2 1 0 0 359 358 357 357 356 355 354 353 352 352 351 349 348 347 346 344 343 342 341 341 340 339 339 338 337 337 336 336 336 336 335 334 333 331 329 327 326 325 324 323 322 322 321 320 319 319 319 319 318 317 317 317
13 9 6 3 2 1 1 1 2 2 2 2 2 1 0 359 359 358 358 357 356 355 354 353 353 352 351 350 348 346 345 344 343 343 342 341 340 339 339 339 338 337 336 336 335 336 335 334 332 330 329 327 325 325 324 323 322 321 320 320 319 319 319 319 318 318 318 317 318
10 6 3 1 0 0 1 1 1 1 1 1 1 0 359 358 357 357 356 355 354 354 353 352 352 351 350 349 347 345 343 343 342 342 342 341 340 339 339 339 338 337 335 334 334 334 333 331 329 328 327 326 325 324 323 322 321 320 320 319 319 319 318 318 318 318 318 318 318
5 3 0 359 360 0 1 1 1 1 1 1 360 359 358 357 356 355 354 353 353 352 352 351 351 350 349 347 346 344 343 342 341 341 340 341 340 339 339 338 337 335 334 333 332 331 330 327 326 326 325 324 323 322 322 321 320 319 319 318 318 318 318 318 317 318 318 318 318
0 359 358 359 360 0 0 0 1 1 0 359 358 358 357 356 355 354 353 352 351 351 350 350 350 349 347 346 344 343 342 341 340 339 339 339 338 338 338 337 335 333 332 331 330 328 326 325 324 324 323 323 322 321 320 319 319 318 318 318 317 317 317 317 317 317 317 317 317
356 357 358 359 359 360 0 0 0 359 358 357 357 356 356 355 354 353 352 351 351 350 349 349 348 347 346 343 342 342 342 341 340 339 337 336 336 336 336 335 333 331 330 328 327 326 324 323 323 323 323 322 322 321 320 319 318 318 317 317 316 316 316 316 316 316 316 316 316
354 356 357 357 358 359 359 358 358 357 357 356 356 356 355 353 352 352 351 351 349 349 348 348 347 345 343 342 341 340 340 339 339 338 336 335 334 333 333 332 330 328 327 327 325 324 323 322 323 323 323 322 322 320 319 318 317 317 316 316 315 315 314 314 314 314 315 315 315
355 355 355 356 356 357 356 356 356 356 356 355 355 354 353 352 352 351 350 349 349 348 347 346 345 344 342 340 339 338 338 337 337 336 335 333 332 331 330 328 327 326 325 325 324 323 322 322 322 322 322 322 321 320 319 317 317 316 316 315 314 314 313 312 312 313 313 313 314
355 354 354 354 354 354 354 354 355 355 354 354 353 352 351 351 351 350 350 349 348 347 346 344 342 341 340 338 337 337 336 336 335 334 333 332 330 329 327 326 325 324 324 324 323 321 321 321 321 322 322 322 321 320 318 317 316 315 315 314 313 312 311 311 311 311 311 311 312
354 353 353 352 352 351 352 353 353 353 353 352 352 351 351 350 350 349 348 348 347 345 343 341 340 339 338 337 336 335 334 333 333 332 331 329 327 325 324 324 323 323 324 323 322 320 320 321 321 321 321 322 321 320 318 317 316 314 313 312 311 310 309 309 309 309 309 309 310
353 352 351 350 350 350 350 351 351 352 351 351 351 350 349 348 348 347 347 346 344 342 341 340 339 337 336 336 334 333 332 331 331 330 328 326 324 322 322 322 322 322 322 322 320 320 320 321 321 321 321 321 321 320 318 317 315 313 312 311 310 309 308 308 308 308 308 309 309
351 350 349 348 348 348 348 349 350 350 350 350 349 348 347 346 345 345 345 344 342 341 340 339 338 336 335 334 333 331 330 329 328 326 324 323 321 320 320 320 320 320 320 320 320 319 320 320 320 321 321 321 321 320 318 316 315 313 311 309 308 308 307 307 308 308 308 308 308
349 348 347 346 346 346 347 348 348 348 348 347 347 346 345 344 344 344 344 343 341 340 338 336 335 333 332 330 329 328 327 325 323 322 321 321 319 318 318 318 318 319 319 319 319 319 320 320 320 320 321 321 321 320 318 316 314 312 311 309 308 308 308 308 308 308 308 307 307
347 345 344 344 344 345 345 346 346 346 345 344 344 344 343 343 342 342 342 341 339 337 335 333 332 330 328 327 326 325 323 322 320 319 319 319 318 317 316 315 316 317 319 319 319 319 319 320 320 320 321 321 321 319 317 316 314 312 310 309 309 309 310 309 309 308 307 307 306
345 343 342 342 343 343 344 344 344 343 343 342 342 342 341 341 341 340 339 339 337 334 333 331 330 328 326 325 324 322 320 319 318 317 317 317 317 316 315 314 315 317 319 319 319 319 320 320 320 320 321 321 321 319 318 316 314 313 312 311 311 311 311 310 309 308 307 307 306
343 342 341 341 341 342 342 342 341 341 341 341 341 340 339 339 339 339 338 336 335 333 331 329 328 327 325 324 322 320 318 317 316 316 316 316 315 315 314 314 315 317 319 320 320 320 320 319 319 320 321 321 320 319 318 317 315 314 313 313 312 312 311 310 309 308 307 306 305
342 341 340 340 339 340 340 339 339 339 339 339 339 338 337 336 336 337 336 335 333 330 328 327 326 324 323 322 320 318 317 316 315 315 315 315 315 314 314 314 315 316 318 320 320 320 319 318 319 320 321 321 320 319 319 318 316 315 315 314 313 312 312 310 309 308 307 305 303
341 341 339 338 337 337 337 337 337 337 337 336 336 335 335 335 334 334 334 332 330 327 325 324 323 321 320 320 318 316 316 316 315 314 314 314 314 314 313 313 314 315 318 319 320 319 318 317 318 320 321 321 321 320 320 319 317 316 315 314 313 312 311 310 309 308 306 304 302
340 339 338 336 335 334 334 334 335 335 334 334 333 333 334 333 332 331 331 329 327 324 322 321 319 319 318 318 316 315 316 316 316 315 314 314 314 314 314 313 313 314 317 319 320 319 318 317 318 320 322 322 322 321 320 319 318 317 316 314 313 312 311 310 308 307 305 304 305
338 337 336 334 333 332 331 332 332 332 333 332 332 332 332 331 330 329 328 327 325 323 320 318 317 317 317 317 315 315 315 316 316 316 315 314 315 315 314 313 313 314 316 319 320 319 317 317 319 321 323 323 323 322 321 320 318 317 315 314 313 312 310 309 308 307 307 309 312
336 335 334 332 331 330 330 330 330 331 332 332 331 330 330 329 328 327 327 325 324 321 319 317 316 316 316 316 315 315 315 315 316 317 316 316 316 315 315 314 314 314 316 318 319 318 317 318 320 322 323 324 323 323 322 320 318 316 315 314 312 310 309 308 308 310 313 318 322
Height
781 781 781 781 781 781 781 781 781 780 780 779 779 778 777 777 776 776 775 774 774 773 772 771 770 769 768 767 766 765 763 762 761 760 759 758 757 756 755 754 752 751 750 749 748 746 745 744 742 741 740 739 738 737 736 735 734 732 731 730 729 727 726 725 724 722 721 720 719
782 781 781 781 781 781 781 781 781 780 780 779 779 778 777 777 776 776 775 774 774 773 772 771 770 769 768 766 766 764 763 762 761 760 759 758 757 756 755 753 752 751 750 749 747 746 745 743 742 741 740 738 737 736 735 734 733 732 731 729 728 727 726 724 723 722 720 719 718
782 782 781 781 781 781 781 781 780 780 780 779 779 778 777 777 776 776 775 774 774 773 772 771 770 769 767 766 765 764 763 762 761 760 758 757 756 755 754 753 752 751 750 748 747 746 745 743 742 741 739 738 737 736 735 733 732 731 730 729 727 726 725 724 722 721 720 718 717
782 782 781 781 781 781 781 781 781 780 780 779 779 778 777 777 776 776 775 774 773 772 771 771 769 768 767 766 765 764 763 762 761 759 758 757 756 755 754 753 751 751 749 748 747 746 744 743 741 740 739 738 736 735 734 733 732 731 730 728 727 726 724 723 722 720 719 717 716
782 782 781 781 781 781 781 781 780 780 779 779 778 777 777 776 776 775 774 773 773 772 771 770 769 768 767 766 765 763 762 761 760 759 758 757 756 755 753 752 751 750 749 748 746 745 744 742 741 740 739 737 736 735 734 733 731 730 729 727 726 725 724 722 721 720 718 716 715
782 782 782 781 781 781 781 780 780 780 779 779 778 777 777 776 776 775 774 773 773 772 771 770 769 767 766 765 764 763 761 761 760 758 757 756 755 754 753 752 751 750 748 747 746 744 743 741 740 739 738 737 736 734 733 732 731 729 728 726 726 724 723 721 720 719 717 716 714
782 782 781 781 781 781 780 780 780 779 779 778 777 777 776 776 775 775 774 773 772 771 770 769 768 767 766 765 763 762 761 760 759 758 757 756 755 754 752 751 750 749 748 746 745 744 742 741 740 739 737 736 735 734 732 731 730 729 727 726 725 723 722 721 719 718 716 715 713
782 782 781 781 781 781 780 780 779 779 778 777 777 777 776 776 775 774 773 772 771 771 770 769 767 766 765 764 763 762 761 759 758 757 756 755 754 753 752 751 749 748 747 746 744 743 742 741 740 738 737 736 734 733 732 731 729 728 726 725 723 722 721 720 719 717 716 714 712
782 782 782 781 781 781 780 780 779 778 777 777 777 776 776 775 775 774 773 772 771 770 769 768 767 766 765 764 762 761 760 759 758 757 756 755 753 752 751 750 748 747 746 745 744 742 741 740 739 738 737 736 734 732 731 730 729 727 726 724 723 721 720 719 718 716 714 713 711
782 782 781 781 781 781 780 780 779 778 777 776 776 776 775 775 774 773 772 772 771 770 769 767 766 765 764 763 762 761 760 759 757 756 755 754 753 752 751 749 748 747 746 744 743 742 741 739 738 737 736 735 733 732 730 729 728 726 725 723 722 720 718 717 716 715 713 711 710
782 782 781 781 781 781 780 779 778 777 777 776 775 775 775 774 773 773 772 771 770 769 768 767 766 765 764 762 761 760 759 758 757 756 755 754 753 751 750 749 748 746 745 744 743 741 740 739 737 736 735 734 732 731 729 728 727 725 724 722 721 719 717 716 715 714 712 711 709
782 782 781 781 781 781 780 779 778 777 776 775 775 774 774 773 773 772 771 771 769 768 767 766 765 764 763 762 761 760 759 758 757 756 754 753 752 751 750 749 747 746 745 743 742 741 740 738 737 735 733 732 731 730 728 727 725 724 722 721 720 718 716 715 714 712 711 710 708
782 781 781 781 781 780 780 779 778 777 776 775 774 774 773 773 772 772 771 770 769 768 767 766 765 764 763 762 761 759 758 757 756 755 754 753 751 750 749 748 747 746 744 743 741 740 739 737 736 735 733 731 730 729 727 726 725 723 721 720 718 717 716 714 712 711 710 708 706
781 781 781 780 780 780 779 779 778 777 776 775 774 773 773 772 772 771 770 769 768 767 766 765 764 763 762 761 760 759 758 757 756 754 753 752 751 750 748 747 746 745 743 742 741 740 738 737 735 734 732 730 729 727 726 725 724 722 721 719 717 716 714 713 711 710 708 706 705
781 781 780 779 779 779 779 779 778 778 776 776 774 773 773 772 771 771 770 769 768 767 766 765 764 763 762 761 760 758 757 756 755 754 752 751 750 749 748 746 745 744 742 741 740 739 737 736 735 733 731 730 728 726 725 723 722 721 720 718 717 715 713 712 710 709 707 705 703
781 780 780 779 779 778 778 778 778 778 777 776 774 773 772 772 771 770 769 768 767 766 766 764 763 762 761 760 759 758 756 756 755 753 752 751 749 748 747 746 744 743 741 740 739 737 736 735 734 732 731 729 727 725 723 722 721 720 718 717 716 714 712 711 709 708 706 704 702
780 780 779 779 778 778 778 778 778 778 777 776 774 773 772 771 771 770 769 768 767 766 765 764 763 761 761 759 758 757 756 755 754 753 751 750 749 747 746 745 744 742 741 739 738 736 735 734 732 731 730 728 726 724 722 721 720 718 717 716 714 713 711 710 708 707 705 703 701
780 779 779 778 778 778 778 778 778 778 777 776 774 773 772 771 770 770 769 768 767 766 764 763 762 761 760 759 758 757 756 754 753 752 751 750 748 747 746 744 743 741 740 738 737 736 734 732 731 729 728 726 725 723 722 720 718 717 716 714 713 711 710 709 707 706 704 702 700
780 779 778 778 778 778 779 779 778 777 776 775 774 772 771 771 770 769 768 767 766 765 764 762 761 761 760 758 757 756 755 754 753 751 750 749 748 746 745 743 742 741 739 738 736 735 733 731 730 728 726 725 723 722 721 719 717 716 714 713 711 710 709 707 706 704 703 701 699
780 779 778 778 779 779 779 778 778 777 776 775 773 772 771 770 769 768 767 766 766 765 763 762 761 760 759 757 756 755 754 753 752 751 750 748 747 746 744 742 741 739 738 737 735 734 732 730 729 727 726 724 722 721 719 717 716 714 713 711 710 709 707 706 704 703 701 700 698
780 779 779 779 779 779 779 778 777 776 775 774 773 771 771 770 769 768 767 766 765 764 763 761 760 759 758 756 756 755 753 753 751 750 749 747 746 745 743 742 740 738 737 736 734 733 731 729 728 726 725 723 721 720 718 716 715 713 711 710 709 707 706 704 703 701 700 698 697
780 779 779 779 779 779 778 778 777 776 775 773 772 771 770 769 768 767 766 766 764 763 762 761 760 758 757 756 755 754 753 751 751 749 748 746 745 744 742 741 739 737 736 734 733 731 730 728 727 726 724 722 721 719 717 716 714 712 710 709 707 706 704 703 701 700 698 697 696
780 780 779 779 779 778 778 777 776 775 774 772 771 770 769 769 768 767 766 765 764 762 761 760 759 758 757 756 755 753 752 750 749 748 747 746 744 742 741 740 738 737 735 734 732 731 729 728 726 725 723 722 720 718 716 715 713 711 709 707 706 704 702 701 700 698 697 696 694
780 780 779 779 779 778 777 776 775 774 773 772 771 770 769 768 767 766 765 764 763 761 760 759 758 757 756 755 754 753 751 749 748 746 745 744 743 741 740 738 737 736 735 733 732 731 730 728 726 724 722 721 719 717 715 714 712 710 708 706 704 702 701 699 698 697 695 694 692
780 779 779 779 778 777 776 775 774 773 772 771 770 769 768 767 766 765 764 763 762 761 760 758 757 756 755 754 753 752 751 749 747 745 744 742 741 740 739 738 736 735 734 732 731 730 729 728 726 725 722 720 718 716 714 712 711 709 707 705 703 701 699 697 696 695 694 692 691
779 779 778 778 777 776 775 774 773 772 771 771 770 768 767 766 766 764 763 762 761 760 759 758 756 755 754 753 752 751 749 748 747 745 743 741 740 739 738 737 736 734 733 731 730 729 728 727 726 724 722 720 718 716 713 711 709 708 706 704 702 700 698 696 694 693 692 691 689
779 778 778 777 776 776 775 774 773 772 771 770 769 768 767 766 765 764 763 761 760 759 758 757 756 755 753 752 751 750 748 747 746 744 743 741 740 738 737 736 735 734 732 731 729 728 727 726 724 723 721 719 717 715 712 710 708 706 705 703 701 699 697 696 693 692 690 689 687
778 778 777 776 776 775 774 773 772 771 770 769 768 767 766 765 764 763 762 761 760 758 757 756 755 754 753 751 750 749 748 746 745 744 742 741 739 738 736 735 734 732 731 730 728 727 726 724 722 721 720 718 716 714 711 709 707 705 703 702 700 698 696 695 693 691 689 687 685
778 777 777 776 775 774 774 773 771 771 770 769 768 767 766 765 764 762 761 760 759 758 756 756 754 753 752 751 750 748 747 746 744 743 741 740 738 737 736 734 733 731 730 729 727 726 724 723 721 720 718 716 715 713 710 708 706 704 702 701 699 697 695 693 691 689 687 686 684
778 777 776 776 775 774 773 772 771 770 769 768 767 766 765 764 763 762 761 760 759 758 756 755 754 753 751 751 749 747 746 745 744 742 741 739 738 736 735 733 732 730 728 727 726 725 723 721 720 718 716 715 713 711 709 707 705 703 701 699 697 696 694 692 690 688 686 684 682
777 776 776 775 774 773 772 771 771 770 769 767 766 766 765 764 762 761 761 759 758 757 756 755 754 752 751 750 748 747 746 744 743 741 740 739 737 735 734 732 730 729 727 726 725 723 722 720 718 717 715 713 712 710 708 706 704 702 700 698 696 694 692 690 688 686 685 683 681
777 776 775 774 774 773 772 771 770 769 768 767 766 765 764 763 762 761 760 759 757 756 755 754 752 751 750 748 747 746 745 744 742 741 739 738 736 734 732 731 729 728 726 725 724 722 720 719 717 715 714 712 710 708 706 704 702 700 698 696 694 692 691 689 687 685 683 681 680
776 776 775 774 773 772 771 770 769 768 767 766 766 765 764 762 761 760 759 758 757 756 754 753 752 751 749 748 746 745 744 743 741 740 738 737 735 733 731 730 728 726 725 724 722 721 719 717 716 714 712 710 708 706 704 702 701 698 696 694 692 691 689 687 685 683 681 680 678
776 775 774 773 772 771 770 769 768 767 766 766 765 764 763 762 761 759 758 757 756 755 754 753 752 751 749 748 747 745 743 741 740 739 737 736 734 732 730 729 727 726 724 722 721 720 718 716 714 712 711 709 707 705 703 701 699 696 695 692 691 689 687 686 684 682 680 678 676
775 774 773 772 771 771 770 769 768 767 766 765 764 763 762 761 760 759 757 756 755 754 753 752 751 750 748 747 746 745 743 741 739 737 736 735 733 731 729 727 725 724 723 721 720 718 716 715 713 711 709 707 705 703 701 699 697 695 693 691 689 687 686 684 682 680 678 676 674
775 774 773 771 771 770 769 768 767 766 766 765 763 762 761 760 759 758 757 756 754 753 752 751 750 748 747 746 744 743 742 740 738 736 735 733 732 730 728 726 724 722 721 720 718 717 715 713 711 710 708 706 704 702 700 697 695 693 691 689 687 686 684 682 680 678 676 674 672
774 773 772 771 770 769 768 768 767 766 765 764 763 762 761 760 758 757 756 755 754 752 751 750 749 748 746 745 743 742 741 739 737 735 733 732 731 729 727 724 722 721 720 718 717 715 714 712 710 708 706 705 702 700 698 696 694 692 690 688 686 684 682 680 678 676 674 672 670
774 773 772 771 770 769 768 767 766 766 764 763 762 761 760 759 758 756 756 755 754 752 750 749 748 747 746 744 742 740 739 738 736 734 732 731 729 728 726 723 721 720 719 717 716 714 712 711 709 707 706 703 701 699 697 695 692 690 688 686 684 682 680 678 676 674 672 670 668
773 772 771 771 770 769 768 767 766 765 764 763 761 761 759 758 757 756 755 754 753 752 750 748 747 746 745 743 741 739 737 736 735 733 731 729 728 727 725 723 721 719 717 716 714 713 711 709 708 706 704 702 700 698 696 694 691 689 687 685 683 680 678 676 674 672 669 667 666
772 772 771 770 769 768 767 766 766 765 763 762 761 759 758 757 756 755 754 753 752 751 750 748 746 745 743 742 740 738 736 734 733 731 730 728 727 726 724 722 720 717 716 714 713 711 710 708 706 705 703 701 699 697 695 693 690 688 686 684 681 679 676 674 672 670 667 666 665
772 771 770 770 769 768 767 766 765 764 763 761 760 759 758 757 756 755 753 752 751 750 749 747 745 744 742 741 739 737 735 732 731 730 728 727 725 724 722 721 718 716 714 713 711 710 709 707 706 704 702 700 698 696 694 692 689 687 684 682 680 677 674 672 670 668 667 665 664